User: anonymous   Login
Location: Goheenville
(40.9070°N, 79.3720°W)
Time: 23:10:25
(UTC-04:00)
Language:

NOAA 11 - Orbit

View from above orbital plane
View from above orbital plane
View from above satellite
View from above satellite

Ground track
Ground track

The orbit data is extracted from the following two-line orbital elements,

1 19531U 88089A   15090.43162184  .00000056  00000-0  50762-4 0  9991
2 19531 098.6504 166.2177 0011070 191.0214 169.0719 14.15140150368361
Epoch (UTC): 31 March 2015 10:21:32
Eccentricity: 0.0011070
inclination: 98.6504°
perigee height: 834 km
apogee height: 850 km
right ascension of ascending node: 166.2177°
argument of perigee: 191.0214°
revolutions per day: 14.15140150
mean anomaly at epoch: 169.0719°
orbit number at epoch: 36836

The dashed part of the orbit path shows where the satellite is in the earth's shadow,  

DLR